Weather in Oaxaca de Juárez

Mexico     17°04′32″N   96°43′37″W
temp.,
°C
wind,
m/s
gust,
m/s
humid.,
%
clouds,
%
prec.,
mm/h
press.,
hPa
HPBL,
m
25 february, thu
thu2500:00+12n238614 0.0 101837
03:00+10nnw23922 0.0 101639
06:00+9nnw23911 0.0 101830
09:00+16nnw22620 0.0 1017479
12:00+23sse23330 0.0 10171497
15:00+26s22270 0.0 10121853
18:00+22e23470 0.0 1013221
21:00+14nne22840 0.0 101624
26 february, fri
fri2600:00+12nnw22915 0.0 101727
03:00+12nw128927 0.0 101429
06:00+11nw229414 0.0 101530
09:00+17nnw126821 0.0 1015357
12:00+25ese123111 0.0 10131611
15:00+28se33220 0.0 10092230
18:00+25ese46320 0.0 1010223
21:00+15s22680 0.0 101427
27 february, sat
sat2700:00+13se01860 0.0 101423
03:00+11nw11910 0.0 101323
06:00+10nnw11920 0.0 101223
09:00+19sse01640 0.0 1014361
12:00+25se22290 0.0 10121639
15:00+28se32220 0.0 10081634
18:00+25se58260 0.0 1010342
21:00+16sse23800 0.0 101329
28 february, sun
sun2800:00+13s01932 0.0 101423
03:00+12wnw11944 0.0 101323
06:00+11nnw11955 0.0 101323
09:00+19s01652 0.0 1014416
12:00+26se22341 0.0 10111477
15:00+29se43250 0.0 10081591
18:00+26ese463025 0.0 1009265
21:00+16sse127115 0.0 101323
1 march, mon
mon100:00+14sw01838 0.0 101423
03:00+13nw12850 0.0 101323
06:00+12nw12910 0.0 101323
09:00+20nw01640 0.0 1014361
12:00+27sse23340 0.0 10111606
15:00+29sse342424 0.0 10082204
18:00+24se473918 0.0 1010754
21:00+17e127512 0.1 101326